GW1898 Weather Reports


time (UTC)temp
F
wind
direction
speed
knots
gust
knots
rain 1hr
in
rain 24hr
in
rain mn
in
humidity
%
barometer
mb
20260505051543 62 0 0.0 0.0 0.00 0.00 0.00 58 1011.3
20260505041543 63 0 0.0 0.0 0.00 0.00 0.00 52 1011.4
20260505040051 64 0 0.0 0.0 0.00 0.00 0.00 52 1011.3
20260505034546 65 0 0.0 0.0 0.00 0.00 0.00 52 1011.2
20260505033045 65 0 0.0 1.7 0.00 0.00 0.00 49 1011.1
20260505031541 66 0 0.0 0.0 0.00 0.00 0.00 49 1011.1
20260505030048 66 159 0.0 0.0 0.00 0.00 0.00 49 1011.1
20260505024546 67 109 0.9 0.9 0.00 0.00 0.00 47 1011.1
20260505023042 67 167 0.9 0.9 0.00 0.00 0.00 47 1011.2
20260505021547 67 189 0.0 0.9 0.00 0.00 0.00 47 1011.0
20260505020042 67 155 0.0 0.0 0.00 0.00 0.00 47 1011.1
20260505014542 67 0 0.0 1.7 0.00 0.00 0.00 47 1010.8
20260505013047 68 211 1.7 2.6 0.00 0.00 0.00 47 1010.5
20260505011549 68 0 0.0 1.7 0.00 0.00 0.00 46 1010.5
20260505010050 69 0 0.0 0.9 0.00 0.00 0.00 46 1010.4
20260505004545 69 0 0.0 0.0 0.00 0.00 0.00 46 1010.3
20260505003040 70 0 0.0 0.9 0.00 0.00 0.00 44 1010.3
20260505001540 71 208 1.7 1.7 0.00 0.00 0.00 44 1010.2
20260505000053 73 179 2.6 2.6 0.00 0.00 0.00 44 1010.2
20260504234547 73 140 0.0 1.7 0.00 0.00 0.00 38 1010.0
20260504233043 74 184 0.9 2.6 0.00 0.00 0.00 38 1009.9
20260504231542 77 47 0.0 7.0 0.00 0.00 0.00 38 1009.9
20260504230040 77 223 0.9 2.6 0.00 0.00 0.00 34 1009.9
20260504224549 77 234 0.9 2.6 0.00 0.00 0.00 34 1009.8
20260504223043 77 133 3.5 3.5 0.00 0.00 0.00 32 1009.9
20260504221543 78 121 7.0 7.0 0.00 0.00 0.00 32 1009.9
20260504220048 78 182 1.7 2.6 0.00 0.00 0.00 32 1009.9
20260504214554 78 236 0.9 1.7 0.00 0.00 0.00 32 1010.0
20260504213049 78 168 0.9 2.6 0.00 0.00 0.00 32 1010.0
20260504211541 78 296 3.5 4.3 0.00 0.00 0.00 32 1009.8
20260504210042 77 238 1.7 5.2 0.00 0.00 0.00 29 1010.0
20260504204542 78 139 0.9 2.6 0.00 0.00 0.00 29 1010.0
20260504203045 78 223 2.6 4.3 0.00 0.00 0.00 29 1010.1
20260504201542 78 126 7.0 7.0 0.00 0.00 0.00 31 1010.5
20260504200048 78 157 2.6 5.2 0.00 0.00 0.00 31 1010.5
20260504194546 77 201 0.0 4.3 0.00 0.00 0.00 31 1010.6
20260504193047 76 309 0.0 5.2 0.00 0.00 0.00 32 1010.9
20260504191552 76 164 3.5 5.2 0.00 0.00 0.00 32 1011.1
20260504190052 76 35 5.2 7.8 0.00 0.00 0.00 32 1011.4
20260504184552 75 230 7.0 9.6 0.00 0.00 0.00 33 1011.7
20260504183049 75 212 4.3 5.2 0.00 0.00 0.00 33 1012.0
20260504181550 75 347 2.6 6.1 0.00 0.00 0.00 33 1012.1
20260504180049 75 146 3.5 3.5 0.00 0.00 0.00 32 1012.3
20260504174544 75 166 2.6 7.8 0.00 0.00 0.00 32 1012.5
20260504173041 75 139 0.0 3.5 0.00 0.00 0.00 32 1012.7
20260504171539 72 155 0.9 1.7 0.00 0.00 0.00 36 1012.9
20260504081546 51 0 0.0 0.0 0.00 0.00 0.00 60 1015.6